New York JFK, NY

11:30 PM EDT on October 20, 2017 (GMT -0400)
Kennedy International

Weather History for KJFK - May, 2013

Change the Weather History Date:

Monday, May 27, 2013

  Actual Average Record
Temperature  
Mean Temperature 59 °F 64 °F  
Max Temperature 70 °F 72 °F 86 °F (1985)
Min Temperature 48 °F 56 °F 42 °F (1961)
Degree Days  
Heating Degree Days 6 3  
Month to date heating degree days 172 157  
Since 1 July heating degree days 4692 4808  
Cooling Degree Days 0 2  
Month to date cooling degree days 5 22  
Year to date cooling degree days 5 25  
Growing Degree Days 10 (Base 50)    
Moisture  
Dew Point 40 °F    
Average Humidity 49    
Maximum Humidity 72    
Minimum Humidity 26    
Precipitation  
Precipitation 0.00 in 0.13 in 0.84 in (1961)
Month to date precipitation 3.49 3.36  
Year to date precipitation 12.71 16.76  
Snow  
Snow 0.00 in 0.00 in - ()
Month to date snowfall 0.0 0.0  
Since 1 July snowfall 17.6 23.8  
Snow Depth 0.00 in    
Sea Level Pressure  
Sea Level Pressure 30.20 in    
Wind  
Wind Speed 11 mph (SW)    
Max Wind Speed 22 mph    
Max Gust Speed 26 mph    
Visibility 10 miles    
Events      
T = Trace of Precipitation, MM = Missing Value Source: NWS Daily Summary

Daily Weather History Graph

Daily Weather History Graph

Search for Another Location

Airport or City:

Trip Planner

Search our weather history database for the weather conditions in past years. The results will help you decide how hot, cold, wet, or windy it might be!

Date:

Astronomy

May. 27, 2013 Rise Set
Actual Time 5:28 AM EDT 8:16 PM EDT
Civil Twilight 4:56 AM EDT 8:48 PM EDT
Nautical Twilight 4:16 AM EDT 9:29 PM EDT
Astronomical Twilight 3:29 AM EDT 10:15 PM EDT
Moon 10:53 PM EDT (5/27) 8:03 AM EDT (5/27)
Length of Visible Light 15h 51m
Length of Day
14h 47m
Waning Gibbous, 91% of the Moon is Illuminated
May 27
Waning Gibbous
May 31
Last Quarter
Jun 8
New
Jun 16
First Quarter
Jun 23
Full

Hourly Weather History & Observations

Time (EDT) Temp. Dew Point Humidity Pressure Visibility Wind Dir Wind Speed Gust Speed Precip Events Conditions
12:51 AM 55.9 °F 32.0 °F 40% 30.22 in 10.0 mi WNW 4.6 mph - N/A   Clear
1:51 AM 54.0 °F 35.1 °F 49% 30.22 in 10.0 mi West 4.6 mph - N/A   Clear
2:51 AM 53.1 °F 34.0 °F 48% 30.22 in 10.0 mi West 5.8 mph - N/A   Clear
3:51 AM 51.1 °F 37.9 °F 61% 30.22 in 10.0 mi WSW 6.9 mph - N/A   Clear
4:51 AM 50.0 °F 37.9 °F 63% 30.23 in 10.0 mi WSW 6.9 mph - N/A   Clear
5:51 AM 51.1 °F 39.0 °F 63% 30.24 in 10.0 mi WSW 6.9 mph - N/A   Clear
6:51 AM 54.0 °F 41.0 °F 62% 30.25 in 10.0 mi SSW 6.9 mph - N/A   Partly Cloudy
7:51 AM 57.0 °F 39.0 °F 51% 30.26 in 10.0 mi WSW 11.5 mph - N/A   Partly Cloudy
8:51 AM 60.1 °F 35.1 °F 39% 30.26 in 10.0 mi WSW 12.7 mph - N/A   Partly Cloudy
9:51 AM 62.1 °F 39.0 °F 43% 30.26 in 10.0 mi WSW 9.2 mph - N/A   Partly Cloudy
10:51 AM 64.9 °F 36.0 °F 34% 30.25 in 10.0 mi WSW 10.4 mph - N/A   Partly Cloudy
11:51 AM 66.0 °F 35.1 °F 32% 30.24 in 10.0 mi SSW 12.7 mph - N/A   Partly Cloudy
12:51 PM 69.1 °F 34.0 °F 27% 30.22 in 10.0 mi SSW 16.1 mph - N/A   Partly Cloudy
1:51 PM 66.9 °F 37.0 °F 33% 30.19 in 10.0 mi South 20.7 mph 24.2 mph N/A   Partly Cloudy
2:51 PM 66.9 °F 37.0 °F 33% 30.18 in 10.0 mi South 18.4 mph - N/A   Partly Cloudy
3:51 PM 66.0 °F 41.0 °F 40% 30.16 in 10.0 mi South 19.6 mph - N/A   Partly Cloudy
4:51 PM 64.9 °F 42.1 °F 43% 30.15 in 10.0 mi South 19.6 mph - N/A   Partly Cloudy
5:51 PM 64.0 °F 45.0 °F 50% 30.14 in 10.0 mi South 19.6 mph - N/A   Scattered Clouds
6:51 PM 62.1 °F 48.0 °F 60% 30.14 in 10.0 mi South 16.1 mph - N/A   Mostly Cloudy
7:51 PM 59.0 °F 48.9 °F 69% 30.14 in 10.0 mi South 10.4 mph - N/A   Mostly Cloudy
8:51 PM 57.9 °F 48.0 °F 70% 30.15 in 10.0 mi South 6.9 mph - N/A   Mostly Cloudy
9:51 PM 57.9 °F 48.9 °F 72% 30.17 in 10.0 mi South 6.9 mph - N/A   Mostly Cloudy
10:51 PM 57.0 °F 48.0 °F 72% 30.18 in 10.0 mi SSW 8.1 mph - N/A   Mostly Cloudy
11:51 PM 55.9 °F 46.9 °F 72% 30.19 in 10.0 mi South 6.9 mph - N/A   Mostly Cloudy